Location: Newark
(5.5500°N, 0.2500°W)
Time: 11:09:14
(UTC+00:00)

OTV 5 (USA 277) - Pass Details

Date: 26 October 2019
Orbit: 310 x 324 km, 54.5° (Epoch: 17 October)

Event Time Altitude Azimuth Distance (km) Brightness Sun altitude
Rises 17:59:01 0° 248° (WSW) 2,030 ? -4.6°
Reaches altitude 10° 18:02:26 10° 296° (WNW) 1,204 ? -5.4°
Maximum altitude 18:02:49 10° 305° (NW) 1,192 ? -5.5°
Drops below altitude 10° 18:03:13 10° 313° (NW) 1,205 ? -5.6°
Sets 18:06:40 0° 1° (N) 2,035 ? -6.5°
